Location: Unspecified
(0.0000°N, 0.0000°E)
Time: 14:10:07
(UTC+00:00)

Altair - All Passes

Search period start: 27 September 2023 00:00
Search period end: 07 October 2023 00:00
Orbit: 1501 x 1682 km, 47.2° (Epoch: 26 September)

Date Brightness Start Highest point End Pass type
(mag) Time Alt. Az. Time Alt. Az. Time Alt. Az.
27 Sep - 01:57:32 10° W 02:03:59 20° NW 02:10:37 10° N visible
27 Sep - 10:35:56 10° NNW 10:44:54 36° NE 10:53:35 10° ESE daylight
27 Sep - 12:40:04 10° WNW 12:49:33 50° SW 12:58:44 10° SSE daylight
27 Sep - 21:25:37 10° SSE 21:29:00 12° SE 21:32:23 10° ESE night (unlit)
27 Sep - 23:24:40 10° SSW 23:33:56 73° SE 23:43:31 10° NE night (unlit)
28 Sep - 01:31:44 10° W 01:38:42 23° NW 01:45:53 10° N night (unlit)
28 Sep - 10:10:59 10° NNW 10:19:38 32° NE 10:28:03 10° ESE daylight
28 Sep - 12:14:39 10° NW 12:24:20 56° SW 12:33:43 10° SSE daylight
28 Sep - 21:02:44 10° SE 21:03:42 10° SE 21:04:39 10° SE visible
28 Sep - 22:59:36 10° SSW 23:08:46 66° SE 23:18:13 10° NE night (unlit)
29 Sep - 01:06:03 10° W 01:13:27 26° NW 01:21:04 10° N night (unlit)
29 Sep - 09:46:04 10° N 09:54:22 29° NE 10:02:27 10° ESE daylight
29 Sep - 11:49:16 10° NW 11:59:08 63° SW 12:08:40 10° SSE daylight
29 Sep - 14:03:51 10° SW 14:04:21 10° SW 14:04:52 10° SW daylight
29 Sep - 22:34:33 10° SSW 22:43:35 58° SE 22:52:53 10° NE night (unlit)
30 Sep - 00:40:26 10° WSW 00:48:12 29° NW 00:56:12 10° N night (unlit)
30 Sep - 09:21:13 10° N 09:29:06 26° NE 09:36:47 10° E daylight
30 Sep - 11:23:56 10° NW 11:33:55 70° SW 11:43:36 10° SSE daylight
30 Sep - 13:35:35 10° WSW 13:39:02 12° SW 13:42:26 10° SSW daylight
30 Sep - 22:09:31 10° SSW 22:18:25 52° SE 22:27:31 10° NE visible
01 Oct - 00:14:54 10° WSW 00:22:57 33° NW 00:31:18 10° NNE night (unlit)
01 Oct - 08:56:25 10° N 09:03:48 23° NE 09:11:03 10° E daylight
01 Oct - 10:58:39 10° NW 11:08:43 78° SW 11:18:29 10° SE daylight
01 Oct - 13:08:56 10° WSW 13:13:43 14° SW 13:18:26 10° SSW daylight
01 Oct - 21:44:32 10° SSW 21:53:14 46° SE 22:02:06 10° ENE visible
01 Oct - 23:49:24 10° WSW 23:57:44 37° NW 00:06:21 10° NNE night (unlit)
02 Oct - 08:31:41 10° N 08:38:30 20° NE 08:45:11 10° E daylight
02 Oct - 10:33:23 10° NW 10:43:30 86° SW 10:53:20 10° SE daylight
02 Oct - 12:42:39 10° W 12:48:24 17° SW 12:54:05 10° S daylight
02 Oct - 21:19:35 10° SSW 21:28:03 41° SE 21:36:39 10° ENE visible
02 Oct - 23:23:58 10° WSW 23:32:31 42° NW 23:41:22 10° NNE night (unlit)
03 Oct - 08:07:04 10° N 08:13:10 17° NE 08:19:11 10° E daylight
03 Oct - 10:08:08 10° NW 10:18:17 86° NE 10:28:09 10° SE daylight
03 Oct - 12:16:35 10° W 12:23:07 19° SW 12:29:34 10° S daylight
03 Oct - 20:54:40 10° SSW 21:02:51 36° SE 21:11:10 10° ENE visible
03 Oct - 22:58:36 10° WSW 23:07:19 47° NW 23:16:21 10° NNE night (unlit)
04 Oct - 07:42:35 10° NNE 07:47:50 15° NE 07:53:01 10° ENE daylight
04 Oct - 09:42:56 10° NW 09:53:05 78° NE 10:02:56 10° SE daylight
04 Oct - 11:50:39 10° W 11:57:51 22° SW 12:04:55 10° S daylight
04 Oct - 20:29:47 10° S 20:37:39 32° SE 20:45:36 10° ENE visible
04 Oct - 22:33:14 10° SW 22:42:07 53° NW 22:51:18 10° NNE visible
05 Oct - 07:18:21 10° NNE 07:22:29 13° NE 07:26:34 10° ENE daylight
05 Oct - 09:17:45 10° NNW 09:27:52 70° NE 09:37:41 10° SE daylight
05 Oct - 11:24:50 10° W 11:32:34 25° SW 11:40:12 10° S daylight
05 Oct - 20:04:57 10° S 20:12:27 28° SE 20:20:00 10° ENE visible
05 Oct - 22:07:56 10° SW 22:16:56 59° NW 22:26:12 10° NNE visible
06 Oct - 06:54:42 10° NNE 06:57:06 11° NE 06:59:31 10° ENE daylight
06 Oct - 08:52:37 10° NNW 09:02:37 63° NE 09:12:24 10° SE daylight
06 Oct - 10:59:06 10° WNW 11:07:19 29° SW 11:15:24 10° S daylight
06 Oct - 19:40:10 10° S 19:47:14 24° SE 19:54:20 10° E visible
06 Oct - 21:42:40 10° SW 21:51:46 66° NW 22:01:07 10° NNE visible
06 Oct - 23:54:54 10° WNW 23:57:02 11° NW 23:59:11 10° NNW night (unlit)
